Voltar ao catálogo

COSMOS 1275

AtivoNavegaçãoPO
NORAD 12504·PAYLOAD·🇷🇺 Russia

Lançado Jun 4, 1981 de Plesetsk Cosmodrome

Loading…

Próximas Passagens (próximas 24 horas)

TLE

AtualizadoSource: Space-Track

Época: Sep 14, 2026, 13:33 UTC

1 12504U 81053A   26257.56484354  .00000044  00000-0  30955-4 0  9994
2 12504  82.9627 199.4618 0038369 290.7032  69.0013 13.74538283271551

Acompanhe COSMOS 1275 em tempo real com AllMySat

Download on the App Store